This demonstration page uses our WeatherBlox Daily Observations layout. Learn more.

39.51506, -84.39828

Hourly Observations for December 6, 2019

Temp ( °F °C ) Dew Point ( °F °C ) Humidity (%) Winds ( mph kmh ) Pressure ( in mb ) Visibility ( mi km ) Precip ( " mm )
12:15 am 00:15 Clear 29 -1.6 28 -2.3 95 95 Calm 30.09 1019 10 16.09344 N/A
12:35 am 00:35 Clear 28 -2 28 -2.4 97 97 Calm 30.09 1019 10 16.09344 N/A
12:55 am 00:55 Clear 28 -2.1 28 -2.3 99 99 Calm 30.09 1019 7 11.265408 N/A
1:15 am 01:15 Clear with Mist and Fog 28 -2.2 28 -2.4 99 99 Calm 30.09 1019 7 11.265408 N/A
1:35 am 01:35 Clear 28 -2.2 28 -2.4 99 99 Calm 30.09 1019 10 16.09344 N/A
1:55 am 01:55 Clear 29 -1.8 28 -2.2 97 97 Calm 30.09 1019 10 16.09344 N/A
2:15 am 02:15 Clear 29 -1.6 28 -2.1 96 96 Calm 30.09 1019 10 16.09344 N/A
2:35 am 02:35 Clear 29 -1.4 29 -1.9 96 96 Calm 30.09 1019 10 16.09344 N/A
2:55 am 02:55 Clear 30 -0.9 29 -1.7 94 94 Calm 30.09 1019 10 16.09344 N/A
3:15 am 03:15 Clear 31 -0.4 29 -1.4 93 93 Calm 30.06 1018 10 16.09344 N/A
3:35 am 03:35 Partly Cloudy 31 -0.4 29 -1.4 93 93 WSW 3 6 30.09 1019 10 16.09344 N/A
3:55 am 03:55 Cloudy 34 1.2 31 -0.8 87 87 Calm 30.06 1018 10 16.09344 N/A
4:15 am 04:15 Cloudy 34 1.3 31 -0.8 86 86 SW 3 6 30.06 1018 10 16.09344 N/A
4:35 am 04:35 Cloudy 34 1.3 31 -0.3 89 89 Calm 30.06 1018 10 16.09344 N/A
4:55 am 04:55 Cloudy 37 2.5 31 -0.8 79 79 Calm 30.06 1018 10 16.09344 N/A
5:15 am 05:15 Cloudy 36 2.1 32 -0.2 85 85 Calm 30.06 1018 10 16.09344 N/A
5:35 am 05:35 Partly Cloudy 35 1.9 32 0.2 89 89 Calm 30.06 1018 10 16.09344 N/A
5:55 am 05:55 Cloudy 35 1.7 33 0.6 93 93 Calm 30.06 1018 10 16.09344 N/A
6:15 am 06:15 Mostly Cloudy 36 2.3 33 0.3 87 87 S 3 6 30.06 1018 10 16.09344 N/A
6:35 am 06:35 Partly Cloudy 37 2.7 32 -0.2 81 81 Calm 30.06 1018 10 16.09344 N/A
6:55 am 06:55 Mostly Cloudy 37 2.7 33 0.4 85 85 Calm 30.06 1018 10 16.09344 N/A
7:15 am 07:15 Cloudy 38 3.5 33 0.6 82 82 Calm 30.09 1019 10 16.09344 N/A
7:35 am 07:35 Cloudy 38 3.5 34 0.9 83 83 Calm 30.09 1019 10 16.09344 N/A
7:55 am 07:55 Cloudy 39 3.9 34 1 82 82 SW 5 7 30.09 1019 10 16.09344 N/A
8:15 am 08:15 Cloudy 40 4.7 35 1.4 79 79 SW 7 11 30.06 1018 10 16.09344 N/A
8:35 am 08:35 Cloudy 42 5.8 35 1.7 75 75 SW 7 11 30.06 1018 10 16.09344 N/A
8:55 am 08:55 Cloudy 43 6.2 36 2 75 75 SW 7 11 30.06 1018 10 16.09344 N/A
9:15 am 09:15 Cloudy 44 6.8 35 1.8 71 71 SW 8 13 30.06 1018 10 16.09344 N/A
9:35 am 09:35 Cloudy 44 6.9 36 2.1 72 72 SW 7 11 30.09 1019 10 16.09344 N/A
9:55 am 09:55 Cloudy 45 7 36 2.3 72 72 SW 6 9 30.09 1019 10 16.09344 N/A
10:15 am 10:15 Cloudy with Light Rain 46 7.6 37 2.5 70 70 SW 6 9 30.12 1020 10 16.09344 N/A
10:35 am 10:35 Cloudy with Light Rain 46 7.5 39 3.8 78 78 SW 6 9 30.12 1020 10 16.09344 N/A
10:55 am 10:55 Cloudy with Light Rain 46 7.7 40 4.2 79 79 SW 5 7 30.12 1020 10 16.09344 N/A
11:15 am 11:15 Cloudy with Light Rain 47 8.1 39 4 76 76 WSW 5 7 30.12 1020 10 16.09344 N/A
11:35 am 11:35 Cloudy with Light Rain 47 8.4 40 4.7 78 78 SSW 5 7 30.12 1020 10 16.09344 N/A
11:55 am 11:55 Cloudy 47 8.3 42 5.6 83 83 SW 3 6 30.12 1020 10 16.09344 N/A
12:15 pm 12:15 Cloudy with Light Rain 47 8.6 43 6.1 84 84 Calm 30.12 1020 10 16.09344 N/A
12:35 pm 12:35 Cloudy 48 9 43 6.1 82 82 Calm 30.12 1020 10 16.09344 N/A
12:55 pm 12:55 Mostly Cloudy 49 9.6 40 4.5 71 71 N 13 20 30.12 1020 10 16.09344 N/A
1:15 pm 13:15 Cloudy 49 9.4 40 4.2 70 70 N 9 15 30.12 1020 10 16.09344 N/A
1:35 pm 13:35 Cloudy 48 8.8 39 3.8 71 71 N 12 19 30.12 1020 10 16.09344 N/A
1:55 pm 13:55 Cloudy 47 8.2 38 3.4 72 72 N 10 17 30.15 1021 10 16.09344 N/A
2:15 pm 14:15 Cloudy 46 8 38 3.1 71 71 NNW 8 13 30.15 1021 10 16.09344 N/A
2:35 pm 14:35 Cloudy 46 7.8 38 3.1 72 72 NNW 10 17 30.15 1021 10 16.09344 N/A
2:55 pm 14:55 Cloudy 45 7.4 37 3 74 74 N 10 17 30.15 1021 10 16.09344 N/A
3:15 pm 15:15 Cloudy 45 7.1 37 2.9 75 75 N 12 19 30.18 1022 7 11.265408 N/A
3:35 pm 15:35 Cloudy 44 6.7 37 2.6 75 75 N 17 28 30.18 1022 7 11.265408 N/A
3:55 pm 15:55 Cloudy 44 6.6 36 2.2 74 74 N 8 13 30.18 1022 10 16.09344 N/A
4:15 pm 16:15 Cloudy 44 6.6 36 2.2 74 74 N 8 13 30.21 1023 10 16.09344 N/A
4:35 pm 16:35 Cloudy 43 6.3 34 1 69 69 N 8 13 30.21 1023 10 16.09344 N/A
4:55 pm 16:55 Cloudy 43 6.2 33 0.4 67 67 N 14 22 30.24 1024 10 16.09344 N/A
5:15 pm 17:15 Clear 42 5.3 31 -0.7 66 66 N 7 11 30.27 1025 10 16.09344 N/A
5:35 pm 17:35 Clear 41 4.8 30 -1.2 65 65 N 9 15 30.27 1025 10 16.09344 N/A
5:55 pm 17:55 Clear 40 4.4 29 -1.4 66 66 N 9 15 30.3 1026 10 16.09344 N/A
6:15 pm 18:15 Clear 39 4 29 -1.8 66 66 N 8 13 30.3 1026 10 16.09344 N/A
6:35 pm 18:35 Clear 38 3.5 28 -2 68 68 N 7 11 30.3 1026 10 16.09344 N/A
6:55 pm 18:55 Clear 37 3 28 -2.1 69 69 N 9 15 30.3 1026 10 16.09344 N/A
7:15 pm 19:15 Clear 36 2.4 28 -2.3 71 71 N 7 11 30.33 1027 10 16.09344 N/A
7:35 pm 19:35 Clear 36 2 27 -2.7 71 71 N 5 7 30.33 1027 10 16.09344 N/A
7:55 pm 19:55 Clear 35 1.7 27 -2.7 73 73 N 5 7 30.33 1027 10 16.09344 N/A
8:15 pm 20:15 Clear 34 1.2 27 -2.9 74 74 Calm 30.33 1027 10 16.09344 N/A
8:35 pm 20:35 Clear 34 1.1 27 -2.8 76 76 Calm 30.36 1028 10 16.09344 N/A
8:55 pm 20:55 Clear 31 -0.4 26 -3.1 82 82 Calm 30.36 1028 10 16.09344 N/A
9:15 pm 21:15 Clear 32 0.2 27 -2.7 81 81 Calm 30.36 1028 10 16.09344 N/A
9:35 pm 21:35 Clear 30 -1.1 27 -2.9 88 88 Calm 30.36 1028 10 16.09344 N/A
9:55 pm 21:55 Clear 26 -3.2 25 -4.1 94 94 Calm 30.36 1028 10 16.09344 N/A
10:15 pm 22:15 Clear 28 -2.1 27 -3 94 94 Calm 30.36 1028 10 16.09344 N/A
10:35 pm 22:35 Clear 28 -2 27 -3 93 93 Calm 30.39 1029 10 16.09344 N/A
10:55 pm 22:55 Clear 28 -2.3 27 -3 95 95 Calm 30.39 1029 10 16.09344 N/A
11:15 pm 23:15 Clear 28 -2 27 -2.8 94 94 N 3 6 30.39 1029 10 16.09344 N/A
11:35 pm 23:35 Clear 27 -3 24 -4.4 90 90 Calm 30.39 1029 10 16.09344 N/A
11:55 pm 23:55 Clear 28 -2.2 26 -3.5 91 91 N 5 7 30.39 1029 10 16.09344 N/A

Powered by AerisWeather